User: anonymous   Login
Location: Budapest
(47.4979°N, 19.0402°E)
Time: 03:04:38
(UTC+01:00)
Language:

Tiangong 1 - Orbit

View from above orbital plane
View from above orbital plane
View from above satellite
View from above satellite

Ground track
Ground track

The orbit data is extracted from the following two-line orbital elements,

1 37820U 11053A   18054.55064057  .00131587  16187-4  16819-3 0  9990
2 37820  42.7515  76.1633 0015986  96.7126  40.2601 16.06391750367975
Epoch (UTC): 23 February 2018 13:12:55
Eccentricity: 0.0015986
inclination: 42.7515°
perigee height: 246 km
apogee height: 267 km
right ascension of ascending node: 76.1633°
argument of perigee: 96.7126°
revolutions per day: 16.06391750
mean anomaly at epoch: 40.2601°
orbit number at epoch: 36797

The dashed part of the orbit path shows where the satellite is in the earth's shadow,  

DLR